User: anonymous   Login
Location: Unspecified
(0.0000°N, 0.0000°E)
Time: 23:39:32
(UTC+00:00)
Language:

GAS SHIELD (DEBRIS) - Orbit

View from above orbital plane
View from above orbital plane
View from above satellite
View from above satellite

Ground track
Ground track

The orbit data is extracted from the following two-line orbital elements,

1 27612U 02058H   18140.37783885 -.00000031  00000-0  15545-4 0  9995
2 27612  64.5567  57.1830 0051092 306.9267  52.7162 14.79339324831030
Epoch (UTC): 20 May 2018 09:04:05
Eccentricity: 0.0051092
inclination: 64.5567°
perigee height: 595 km
apogee height: 667 km
right ascension of ascending node: 57.1830°
argument of perigee: 306.9267°
revolutions per day: 14.79339324
mean anomaly at epoch: 52.7162°
orbit number at epoch: 83103

The dashed part of the orbit path shows where the satellite is in the earth's shadow,  

DLR